Location: Byszew
(52.1813°N, 19.2693°E)
Time: 12:32:01
(UTC+00:00)

Cosmos 990 Rocket - Visible Passes

Search period start: 12 June 2021 00:00
Search period end: 22 June 2021 00:00
Orbit: 746 x 769 km, 74.0° (Epoch: 11 June)

Date Brightness Start Highest point End Pass type
(mag) Time Alt. Az. Time Alt. Az. Time Alt. Az.
12 Jun 4.1 00:30:05 10° NNW 00:35:21 84° ENE 00:40:32 10° SSE visible
12 Jun 6.7 22:09:11 10° N 22:12:01 14° NE 22:14:49 10° ENE visible
12 Jun 4.7 23:50:01 10° NNW 23:55:08 53° ENE 00:00:12 10° SE visible
13 Jun 5.0 01:32:19 10° NW 01:36:43 28° W 01:41:04 10° SSW visible
13 Jun 6.9 21:30:08 10° NNE 21:31:14 11° NNE 21:32:21 10° NE visible
13 Jun 5.5 23:10:01 10° NNW 23:14:48 35° NE 23:19:31 10° ESE visible
14 Jun 4.3 00:51:50 10° NW 00:56:49 46° WSW 01:01:43 10° S visible
14 Jun 6.1 22:30:08 10° N 22:34:20 24° NE 22:38:30 10° E visible
15 Jun 3.9 00:11:34 10° NNW 00:16:47 76° WSW 00:21:56 10° SSE visible
15 Jun 6.5 21:50:22 10° N 21:53:45 17° NE 21:57:06 10° E visible
15 Jun 4.3 23:31:25 10° NNW 23:36:39 68° ENE 23:41:47 10° SE visible
16 Jun 5.3 01:14:05 10° NW 01:17:59 22° W 01:21:51 10° SSW visible
16 Jun 6.6 21:10:53 10° N 21:13:02 12° NNE 21:15:11 10° ENE visible
16 Jun 5.0 22:51:23 10° NNW 22:56:22 43° NE 23:01:17 10° SE visible
17 Jun 4.7 00:33:26 10° NW 00:38:09 35° WSW 00:42:18 13° SSW visible
17 Jun 5.7 22:11:27 10° N 22:15:58 29° NE 22:20:27 10° ESE visible
17 Jun 4.1 23:53:04 10° NNW 23:58:11 59° WSW 00:02:20 15° S visible
18 Jun 6.2 21:31:37 10° N 21:35:27 20° NE 21:39:15 10° E visible
18 Jun 4.0 23:12:52 10° NNW 23:18:06 86° ENE 23:22:27 15° SSE visible
19 Jun 5.7 00:56:01 10° NW 00:59:13 17° W 01:02:25 10° SW visible
19 Jun 6.4 20:51:57 10° N 20:54:48 15° NE 20:57:38 10° ENE visible
19 Jun 4.6 22:32:47 10° NNW 22:37:54 54° ENE 22:42:37 12° SE visible
20 Jun 5.1 00:15:06 10° NW 00:19:27 27° W 00:22:38 15° SSW visible
20 Jun 6.7 20:12:51 10° NNE 20:14:02 11° NNE 20:15:14 10° NE visible
20 Jun 5.3 21:52:47 10° NNW 21:57:34 35° NE 22:02:18 10° ESE visible
20 Jun 4.4 23:34:37 10° NW 23:39:33 45° WSW 23:42:50 20° S visible
21 Jun 5.8 21:12:53 10° N 21:17:07 24° NE 21:21:17 10° E visible
21 Jun 4.0 22:54:21 10° NNW 22:59:32 75° WSW 23:03:05 20° SSE visible
